weather.gov     
National Weather Service

Regional Weather Roundup
NWS Homepage
This page is being discontinued on March 12, 2014.
The same data is available at this site. Please update your bookmarks.
Thank you, and we apologize for the inconvenience.
Please send an email to SR-SRH.Webmaster@noaa.gov with any concerns.


Current Version
Previous Version:    01  02  03  04  05  06  07  08  09  10  11  12  13  14  15  16  17  18  19  20  21  22  23  24  25  26  
[Printable]
672
ASUS41 KAKQ 221610
RWRAKQ

REGIONAL WEATHER ROUNDUP
NATIONAL WEATHER SERVICE WAKEFIELD VA
1100 AM EST SAT NOV 22 2014

Note: "fair" indicates few or no clouds below 12,000 feet with no
significant weather and/or obstructions to visibility. * = Denotes
station may not report precipitation (e.g., rain,snow,etc.),
thunder or fog.

VAZ042-051-052>054-056-221700-
NORTHERN VIRGINIA

CITY           SKY/WX    TMP DP  RH WIND       PRES   REMARKS
WASH NATIONAL  MOSUNNY   42  17  36 S10       30.49F
DULLES         MOSUNNY   38  15  39 SW13      30.45F
FORT BELVOIR   SUNNY     40  17  39 VRB6      30.48F
QUANTICO       SUNNY     42  21  43 S15       30.50F
FREDERICKSBRG* SUNNY     44  15  32 SW16G22   30.49F
STAFFORD*      SUNNY     42  11  27 S7        30.52F
WARRENTON      SUNNY     43  22  43 SW13G21   30.45F
CULPEPER*      SUNNY     43  14  31 S10G20    30.45F
MANASSAS*      SUNNY     41  16  36 SW10      30.47F
LEESBURG*      SUNNY     37  19  48 S9        30.46F
WINCHESTER     SUNNY     39   3  22 SW3       30.40F
FRONT ROYAL*   SUNNY     41  14  33 CALM      30.39F
LURAY*         SUNNY     46  19  34 SW14      30.39F
$$

VAZ048-049-060>072-079>083-221700-
CENTRAL AND SOUTH CENTRAL VIRGINIA

CITY           SKY/WX    TMP DP  RH WIND       PRES   REMARKS
RICHMOND       PTSUNNY   43  15  32 SW13      30.53F
CHESTERFIELD*  SUNNY     43  14  31 SW10      30.55F
PETERSBURG*    SUNNY     44  14  30 S8        30.55F
HANOVER        SUNNY     43  14  31 SW14      30.53F
TAPPAHANNOCK*  SUNNY     42   9  26 S12       30.53F
QUINTON*       FAIR      40  16  37 S7        30.54F
CHARLOTTSVILLE SUNNY     41  14  33 S15       30.44F
GORDONSVILLE*  SUNNY     41  14  33 SW20G28   30.44F
ORANGE*        SUNNY     43  14  31 S13G24    30.46F
LOUISA*        SUNNY     45  16  31 SW12G20   30.46F
BUMPASS*       FAIR      40  14  34 SW7G17    30.49F
FARMVILLE*     SUNNY     44  14  29 SW10G17   30.50F
CREWE*         SUNNY     41  12  31 S9        30.53S
FORT PICKETT*  SUNNY     41  17  37 S9        30.53F
LUNENBURG*     SUNNY     42  19  40 S7        30.53F
CHASE CITY*    FAIR      42  21  43 SW3       30.53F
CLARKSVILLE*   FAIR      41  18  38 SW6       30.53F
SOUTH HILL*    SUNNY     41  16  35 SW10      30.60F
LAWRENCEVILLE* SUNNY     42  19  39 SW7       30.54F
$$

VAZ088>098-221700-
SOUTHEAST VIRGINIA

CITY           SKY/WX    TMP DP  RH WIND       PRES   REMARKS
NORFOLK        SUNNY     47  17  30 S9        30.55F
VIRGINIA BEACH PTSUNNY   48  20  32 S9        30.54F
NORFOLK NAVAL  PTSUNNY   48  16  27 S9        30.56F
WEST POINT*    SUNNY     45  15  29 SW9       30.56F
SALUDA*        FAIR      42  19  40 S8G18     30.54F
NEWPORT NEWS   SUNNY     46  18  32 S13       30.55F
LANGLEY AFB    SUNNY     45  20  36 SW12      30.56F
FORT EUSTIS    SUNNY     43  19  38 SW6       30.54F
WILLIAMSBURG*  SUNNY     46  19  34 SW8       30.56F
HR EXEC AP*    SUNNY     46  21  36 S7        30.57F
FRANKLIN*      SUNNY     43  19  39 S7        30.56F
WAKEFIELD      SUNNY     44  13  28 SW9       30.55F
$$

VAZ020-022-025-037-045-221700-
WEST CENTRAL AND SOUTHWEST VIRGINIA

CITY           SKY/WX    TMP DP  RH WIND       PRES   REMARKS
STAUNTON*      SUNNY     47  10  22 SW15      30.41F
WAYNESBORO*    SUNNY     43  11  27 CALM      30.39F
HOT SPRINGS VA SUNNY     43  10  26 W12       30.33F
LYNCHBURG      SUNNY     39  15  37 S15       30.49F
DANVILLE       MOSUNNY   42  15  33 SW9       30.54F
SOUTH BOSTON*  SUNNY     42  16  35 SW7       30.54F
MARTINSVILLE   MOSUNNY   43  14  31 SW5       30.52F
ROANOKE        PTSUNNY   38  12  34 SE3       30.48F
BLACKSBURG     SUNNY     39  21  48 CALM      30.44F
DUBLIN*        SUNNY     41  16  37 S7        30.43F
MARION*        SUNNY     41  14  34 E5        30.43F
HILLSVILLE*    MOSUNNY   40  15  35 SE7       30.41F
RICHLANDS*     MOSUNNY   46  15  29 W3        30.38S
WISE*          SUNNY     52  16  24 S10G16    30.37F
ABINGDON*      SUNNY     47  17  30 E3        30.40F
$$

MDZ021>025-VAZ099-100-221700-
SOUTHERN MARYLAND AND THE DELMARVA PENINSULA

CITY           SKY/WX    TMP DP  RH WIND       PRES   REMARKS
PATUXENT RIVER MOSUNNY   42  15  33 S10       30.51F
BAY BRIDGE APT   N/A     41  16  36 S13G20    30.49F
LEONARDTOWN    SUNNY     41  14  33 SW8G18    30.52F
DOVER          SUNNY     41  19  41 S15       30.47F
GEORGETOWN     SUNNY     42  19  39 SW15      30.52F
EASTON         NOT AVBL
CAMBRIDGE      SUNNY     43  19  39 SW10G17   30.51S
SALISBURY      SUNNY     45  19  35 S13       30.52F
OCEAN CITY     SUNNY     41  16  36 SW14G22   30.53F
WALLOPS ISLAND SUNNY     44  15  31 W10       30.54F
ACCOMACK*      SUNNY     45  18  33 SW10      30.54F
$$

NCZ012>017-030>032-221700-
NORTH CENTRAL AND EASTERN NORTH CAROLINA

CITY           SKY/WX    TMP DP  RH WIND       PRES   REMARKS
ROANOKE RAPIDS SUNNY     43  18  36 SW7       30.56F
RALEIGH        MOSUNNY   44  14  29 VRB3      30.56F
ELIZABETH CITY SUNNY     50  26  39 SW7       30.57F
AHOSKIE*       SUNNY     44  22  41 S6        30.56F
EDENTON*       SUNNY     47  28  47 S5        30.57F
CURRITUCK*     SUNNY     48  23  37 SW5       30.56F
KILL DEVIL HLS SUNNY     49  31  51 E3        30.54F
MANTEO         SUNNY     48  32  52 CALM      30.56F
CAPE HATTERAS  SUNNY     48  38  68 NE7       30.55F
TARBORO*       SUNNY     46  16  29 SE3       30.58F
GOLDSBORO      SUNNY     49  20  31 CALM      30.54F
WASHINGTON     SUNNY     47  29  49 SE7       30.57F
GREENVILLE     SUNNY     46  23  39 S3        30.56F
NEW BERN       SUNNY     50  25  37 CALM      30.57F
WILMINGTON     SUNNY     52  38  58 NE7       30.53F
$$

VAZ048-221700-
ELSEWHERE

CITY           SKY/WX    TMP DP  RH WIND       PRES   REMARKS
HARRISBURG PA  MOSUNNY   34  15  46 E3        30.42F
BALTIMORE      MOSUNNY   39  14  36 SW9G16    30.46F
ANNAPOLIS      SUNNY     40  14  34 SW10G17   30.49F
ANDREWS AFB    SUNNY     41  15  34 SW14      30.47F
PHILADELPHIA   SUNNY     38  17  42 SW18      30.49F
WILDWOOD NJ*   SUNNY     41  19  42 SW13      30.48F
HENDERSON NC   SUNNY     43  11  27 SW12      30.54F
GREENSBORO     PTSUNNY   42  13  30 SW6       30.51F
ROCKY MOUNT    SUNNY     45  14  28 VRB6      30.57F
$$

VAZ100-221700-
MARINE

STATION/POSITION TIME  TEMP    WIND        PRES    WAVE   SWELL
                       AIR SEA DIR/SP/G            HT/PER HT/PER
                 (UTC) (F)     (DEG/KT/KT) (MB)    (FT/S) (FT/S)
CAPE MAY NJ      1600   39 45  240/ 12/ 14 1032.7F
LEWES DE         1600   40 44  240/  6/ 11 1032.9F
15NM E FENWICK I 1600   41 53              1033.3F   1/ 5
OCEAN-CITY-INLET 1600   39 48  220/ 14/ 17 1033.5S
WACHAPREAGUE VA  1600   43 40  210/  9/ 13 1034.2F
THOMAS POINT MD  1600   38 46  210/ 16/ 18 1033.5F
GOOSES REEF MD   1600   40 48  220/ 17/ 19 1033.2F   2/ 2
COVE POINT MD    1600   39     220/ 18/ 20 1033.1F
SOLOMONS ISLAND  1600      48                N/A
BISHOPS HEAD MD  1600   41 36  220/ 15/ 18 1033.1F
PINEY POINT MD   1600          230/ 12/ 15   N/A
POTOMAC MD       1600   41 49  230/ 14/ 17 1032.7F   1/ 2
CAMBRIDGE MD     1600   41 42  200/  8/ 12 1033.2F
LEWISETTA VA     1600   41 42  220/ 13/ 17 1033.2F
RAPPAHANNOCK LGT 1600          210/ 14/ 16 1034.7F
STINGRAY PT      1600   42 48  230/ 12/ 16 1034.4F   1/ 2
YORK RVR RNG VA  1600   43     220/ 11/ 13 1033.9F
YORKTOWN VA      1600   43 50  220/  7/ 11 1034.3F
JAMESTOWN VA     1600   41 48  240/ 10/ 14   N/A     0
DOMINION TERM VA 1600   42     230/  6/  8 1034.8F
KIPTOPEKE VA     1600      51  220/  9/ 11   N/A
CHES BAY BRIDGE  1600   44 50  180/  6/  9 1034.2F
CAPE HENRY VA    1600   45     170/  8/ 11 1033.2F
CHESAPEAKE LGHT  1500   44     180/  6/  7 1035.6F
WILLOUBY STN VA  1600   44     210/ 10/ 11 1033.2F
S CRANEY ISL VA  1600          170/  7/ 11 1034.5F
CAPE HENRY BUOY  1500      54                N/A     1/ 6
1ST LANDING BUOY 1600   45 52  210/ 10/ 12 1034.0F   1
CAPE CHARLES BUO 1600      54                N/A     1/ 6   2/ 6
64NM E OF VA BCH 1600   46 60  200/  4/ 10 1034.5F   3/ 6   2/ 6
DUCK PIER NC     1600   46 54  130/  2/  4 1034.2F
44100 DUCK FRF   1600      57                N/A     2/ 6
44056 DUCK FRF   1600      56                N/A     2/ 5
OREGON INLET NC  1600   48 49   50/  3/  6 1034.7F
HATTERAS NC      1600   46 50   10/ 11/ 12 1035.0S




U.S. Dept. of Commerce
NOAA National Weather Service
1325 East West Highway
Silver Spring, MD 20910
E-mail: w-nws.webmaster@noaa.gov
Page last modified: May 16, 2007
NATIONAL WEATHER SERVICE: for Safety, for Work, for Fun - FOR LIFE